Regional Weather Roundup
Issued by NWS Green Bay, WI

Home | Current Version | Previous Version | Graphics & Text | Print | Product List | Glossary Off
Versions: 1 2 3 4 5 6 7 8 9 10 11 12 13 14 15 16 17 18 19 20 21 22 23 24 25 26 27 28 29 30 31 32 33 34 35 36 37 38 39 40 41 42 43 44 45 46 47 48 49 50

000
ASUS43 KGRB 180811
RWRGRB

NORTH-CENTRAL AND NORTHEAST WISCONSIN REGIONAL WEATHER ROUNDUP
NATIONAL WEATHER SERVICE GREEN BAY WI
300 AM CDT WED OCT 18 2017

WIZ005-009-010>012-018-019-180900-
NORTH CENTRAL WISCONSIN

CITY           SKY/WX    TMP DP  RH WIND       PRES   REMARKS
IRONWOOD       CLEAR     57  44  62 S12G20    29.86F
MANITOWISH WTR CLEAR     48  45  91 S6        29.91S
ARBOR VITAE    CLEAR     52  46  79 S7        29.93S
EAGLE RIVER    CLEAR     46  41  82 CALM      29.93F
LAND O LAKES   CLEAR     48  43  84 S3        29.94S
RHINELANDER    CLEAR     52  45  77 SW9       29.95F
PHILLIPS       CLEAR     50  44  78 S5        29.92S
ANTIGO         CLEAR     47  42  85 S7        29.98F
TOMAHAWK       CLEAR     44  41  91 CALM      29.96S
MERRILL        CLEAR     51  44  77 SW5       29.97S
$$

WIZ013-073-180900-
NORTHEAST WISCONSIN

CITY           SKY/WX    TMP DP  RH WIND       PRES   REMARKS
IRON MOUNTAIN  CLEAR     47  42  83 SE5       29.94F
MARINETTE      CLEAR     54  45  71 SW8       29.99F
OCONTO         CLEAR     52  44  73 SW3       29.99F
$$

WIZ017-030-035>037-045-180900-
CENTRAL WISCONSIN

CITY           SKY/WX    TMP DP  RH WIND       PRES   REMARKS
MEDFORD        CLEAR     51  43  73 S8        29.95S
WAUSAU         CLEAR     50  44  80 VRB3      29.96F
MOSINEE        CLEAR     48  43  81 S8        29.99S
MARSHFIELD     CLEAR     47  41  80 S8        29.97F
WISC RAPIDS    CLEAR     49  43  80 S5        30.00F
STEVENS POINT  CLEAR     46  42  85 S7        30.00F
WAUPACA        CLEAR     50  44  80 S6        30.01F
SHAWANO        CLEAR     52  45  76 CALM      29.99F
CLINTONVILLE   CLEAR     50  43  76 S3        30.00F
WAUTOMA        CLEAR     41  39  93 CALM      30.03F
$$

WIZ038-039-048-051-180900-
FOX VALLEY

CITY           SKY/WX    TMP DP  RH WIND       PRES   REMARKS
NWS GREEN BAY  CLEAR     54  47  77 S7        30.01F
APPLETON       CLEAR     52  39  62 SW13      30.01S
OSHKOSH        CLEAR     52  43  71 S12       30.03S
FOND DU LAC    CLEAR     54  40  59 SW9       30.05S
$$

WIZ022-050-052-180900-
EAST CENTRAL WISCONSIN

CITY           SKY/WX    TMP DP  RH WIND       PRES   REMARKS
EPHRAIM        FAIR      57  46  66 SW8G18    29.98F
WASHINGTON ISL PTSUNNY   57  49  76 SW13G18   29.98F
STURGEON BAY   CLEAR     56  44  64 SW9       30.01S
MANITOWOC      CLEAR     56  42  59 SW7       30.04F
SHEBOYGAN      CLEAR     53  44  71 SW8       30.06S
$$

LMZ563-521-522-541>543-180900-
LAKESHORE

STATION/POSITION TIME  TEMP    WIND        PRES    VSBY  WAVE
                       AIR SEA DIR/SP/G                  HT/PER
                 (UTC) (F)     (DEG/KT/KT) (MB)    (MI)  (FT/S)
SHEBOYGAN LKSHOR 0800   55     200/ 10/ 10 1017.6F
KEWAUNEE LKSHORE 0748   56     200/  6/  8 1015.9R
NORTHPORT PIER   0740   56     170/  3/  8 1015.6S
N MID LAKE BUOY  0750   60 59  210/ 16/ 19 1016.1S         3/ 5
S GREEN BAY BUOY 0800   58 58  220/ 14/ 16 1015.6
SISTER BAY LKSHO 0804   61     210/ 17/ 20   N/A
MENOMINEE LKSHOR 0748   56     210/  9/ 13 1015.1F
$$




USA.gov is the U.S. government's official web portal to all federal, state and local government web resources and services.